Wind_Speed
40 41 42 40 37 36 37 36 35 36 38 41 42 43 43 44 45 42 37 33 34 37 39 39 37 36 37 39 42 45 48 50 53 55 57 59 60 59 58 57 56 57 57 58
41 41 43 44 44 42 41 43 44 45 46 46 46 47 48 48 46 38 31 32 36 41 42 43 42 43 43 44 46 49 51 53 55 57 58 58 57 57 57 57 58 58 58 59
40 39 40 44 47 46 45 45 46 47 48 48 50 51 51 50 45 38 37 38 41 44 45 46 47 47 47 48 49 50 52 52 53 53 53 52 54 56 57 58 58 57 56 56
41 38 35 38 43 45 47 48 49 47 46 45 45 45 45 45 45 45 46 46 47 48 48 48 48 48 48 48 48 49 48 47 47 48 49 52 53 55 55 54 54 53 53 51
36 35 33 32 35 39 42 45 47 49 50 50 48 48 49 50 50 49 50 49 49 48 47 46 46 47 46 46 45 43 42 43 45 48 49 51 52 52 52 51 50 50 48 47
36 35 35 34 34 37 39 43 43 44 46 48 48 47 48 49 50 50 49 48 47 46 45 45 45 45 44 43 40 40 41 43 45 47 48 48 49 49 49 47 46 45 45 45
33 33 34 34 33 33 36 38 40 42 44 46 47 47 47 47 47 48 48 47 46 44 43 43 43 43 41 39 38 38 39 40 42 44 45 46 46 45 44 43 43 43 43 43
22 23 25 25 25 26 28 30 33 37 39 41 43 44 45 45 45 45 44 42 41 41 41 41 41 39 38 36 36 37 38 40 42 43 42 41 41 41 42 42 42 41 40 37
20 22 23 23 23 23 23 24 27 30 33 35 37 39 40 41 41 40 38 38 38 39 39 39 37 35 34 34 35 36 38 38 39 39 39 40 41 41 41 40 38 36 32 29
20 21 22 23 24 25 26 27 28 29 31 33 34 35 36 36 36 36 36 36 36 36 35 34 32 32 32 33 34 34 35 36 37 38 39 40 40 39 36 34 31 27 25 25
20 22 24 24 25 27 28 29 30 31 32 33 34 35 35 35 35 34 33 33 32 30 29 28 28 29 30 31 32 33 35 36 37 38 37 36 34 32 29 26 24 24 25 25
21 23 25 26 27 28 29 29 29 29 30 30 30 30 30 30 28 27 25 24 23 23 23 24 25 26 28 30 32 34 36 36 36 34 32 29 27 25 24 24 24 24 24 23
19 21 23 23 24 24 23 23 24 24 24 23 23 23 21 19 17 15 14 15 17 18 19 21 24 26 29 32 34 35 35 33 30 28 25 23 22 22 23 22 21 20 19 18
16 17 17 17 17 18 18 18 18 18 17 16 14 11 10 8 8 9 10 11 12 15 18 21 24 27 30 31 32 30 28 25 23 22 22 21 21 21 19 17 16 15 14 13
13 12 11 10 9 9 9 9 10 9 8 7 5 6 6 6 7 7 7 9 12 15 19 22 25 27 28 27 25 23 21 20 20 20 20 19 17 16 14 12 12 11 10 8
10 9 6 3 1 1 1 2 3 4 4 3 3 4 4 3 3 4 7 10 13 16 19 22 24 25 24 22 21 20 20 20 19 18 16 15 13 11 10 9 9 9 8 7
8 6 5 4 4 3 3 4 5 5 5 5 4 4 4 4 5 6 9 12 15 18 21 23 24 23 22 21 20 20 20 19 18 15 13 11 9 8 8 8 8 8 8 9
4 4 3 3 4 6 8 8 9 9 8 8 8 8 7 8 8 10 12 15 19 22 24 24 24 23 23 23 22 21 19 18 16 13 11 9 8 7 7 7 7 9 10 11
1 3 4 5 7 8 10 11 11 10 10 10 10 10 10 10 11 14 17 19 21 23 25 25 25 25 24 23 23 21 20 18 15 13 10 9 8 8 8 9 10 11 12 14
3 4 5 7 9 10 11 11 11 11 11 11 11 11 12 13 14 16 18 21 23 24 25 26 26 26 26 26 25 24 22 19 16 14 12 11 10 10 10 11 11 12 14 16
6 5 6 7 9 9 10 10 11 11 12 12 12 12 12 13 14 16 18 22 23 24 26 27 29 29 29 28 28 26 24 21 18 16 14 13 13 12 13 13 14 15 16 17
8 6 6 6 7 8 8 9 9 10 11 11 11 11 12 12 13 15 19 21 23 24 26 29 31 31 32 32 31 30 27 25 22 19 18 17 17 16 15 15 16 16 16 17
11 8 6 5 6 6 6 7 8 9 10 11 10 10 10 11 12 15 18 20 22 24 27 29 31 33 34 34 34 33 31 29 27 25 23 21 20 18 17 16 16 16 15 15
12 9 6 4 4 4 4 5 6 7 9 10 10 9 9 9 11 13 16 18 21 23 26 28 31 32 33 34 35 35 35 34 32 30 27 25 22 19 17 16 15 14 14 14
13 10 7 5 3 3 3 4 6 7 9 10 9 9 9 8 9 11 14 16 19 21 24 25 28 30 32 33 35 36 36 37 37 35 32 29 26 22 18 15 14 12 12 12
13 11 9 7 5 5 5 5 7 9 10 10 10 9 8 8 8 9 12 14 17 19 21 22 25 27 29 31 33 34 35 37 38 38 37 35 32 28 24 19 15 12 11 11
13 11 9 8 7 7 7 8 9 11 13 12 11 10 8 8 8 8 10 13 16 16 17 20 23 25 27 28 30 32 34 35 36 37 38 38 37 35 32 28 23 18 15 14
Wind_Direction
229 226 230 232 234 236 237 239 244 251 257 263 267 268 268 268 268 267 269 275 281 285 288 290 291 288 284 281 278 278 279 281 284 286 288 289 291 292 293 293 293 296 298 300
239 237 237 243 250 253 253 251 251 255 258 261 263 265 266 266 267 269 274 281 285 287 289 289 289 288 286 285 283 283 284 284 285 286 287 289 291 292 293 294 296 298 299 301
246 248 247 247 247 249 251 254 256 256 257 258 259 261 263 265 268 275 287 290 288 287 287 287 287 288 288 288 288 288 288 288 288 289 289 289 290 291 294 295 298 300 301 303
253 252 252 250 249 248 248 250 252 253 255 258 262 265 269 273 279 285 289 289 288 287 287 288 289 290 291 291 290 290 290 290 290 287 286 288 289 292 295 297 299 300 302 303
249 247 246 245 247 249 249 250 251 253 255 259 263 268 272 277 281 284 286 288 288 289 289 290 291 292 292 291 290 289 287 285 283 283 287 290 292 295 296 298 299 301 303 305
249 251 252 250 250 251 252 253 255 257 259 262 266 269 272 275 279 282 284 287 288 289 290 290 291 292 293 292 290 287 284 282 283 286 289 291 294 296 298 300 302 304 305 306
251 255 257 258 261 261 258 258 259 260 263 265 268 271 274 277 279 281 283 284 285 286 287 289 291 293 294 293 291 289 287 287 288 290 291 294 297 299 301 303 304 305 305 307
253 256 260 263 267 268 267 263 261 262 263 266 268 271 274 276 278 280 281 281 282 283 286 289 291 292 293 292 291 290 290 290 292 294 296 298 300 302 304 305 306 306 307 308
270 271 271 271 271 271 270 268 266 267 268 268 270 272 274 275 278 279 279 280 282 284 287 289 290 291 291 290 291 293 294 296 298 300 302 303 305 306 307 307 307 307 308 308
271 272 272 272 271 270 270 270 270 270 271 273 275 276 277 279 279 280 280 281 283 285 287 288 289 290 292 294 297 298 299 300 302 304 306 307 307 307 306 306 306 306 307 308
270 272 273 272 272 271 270 270 270 271 274 276 278 280 281 282 282 281 281 282 283 284 285 287 290 294 298 300 301 302 303 304 305 306 307 307 307 306 306 306 306 306 307 308
274 276 276 277 276 275 274 273 274 275 276 277 279 281 282 282 282 281 280 280 280 281 285 291 297 301 304 305 306 306 306 306 307 308 309 310 310 309 310 309 308 308 308 308
284 284 284 283 280 279 277 275 273 274 277 280 281 282 283 282 280 278 275 277 281 287 296 304 308 310 311 310 310 310 310 310 311 312 313 315 315 315 314 312 310 310 312 312
296 296 293 288 284 281 278 274 272 272 276 280 277 275 275 273 268 269 277 288 299 309 315 317 317 316 316 315 315 315 315 314 315 316 317 318 318 318 319 318 318 319 321 321
315 315 308 297 288 282 275 269 266 263 268 273 252 244 253 258 268 279 301 319 327 328 327 326 325 324 324 324 324 324 323 323 323 322 322 322 323 324 326 329 332 335 338 339
338 345 345 337 315 289 279 239 233 235 239 231 221 230 241 260 301 340 349 348 345 342 340 338 338 338 337 337 335 333 332 330 329 329 330 332 334 338 342 347 353 360 10 22
349 5 29 60 80 95 103 106 113 112 112 113 119 121 113 82 49 30 16 8 2 359 357 355 353 352 351 349 346 343 340 338 338 339 343 347 353 359 1 6 17 32 43 58
2 27 58 84 94 100 102 99 100 100 100 103 106 101 90 74 59 43 31 23 18 13 10 7 5 4 2 359 357 355 354 354 356 359 5 11 17 22 25 33 52 61 70 77
77 74 85 99 102 102 101 98 97 97 100 103 100 93 83 72 59 48 39 32 27 23 20 18 17 16 14 11 10 10 10 11 14 18 26 34 39 45 52 65 73 76 84 89
155 110 97 98 100 101 102 100 98 98 101 101 96 89 80 68 57 50 43 37 34 31 29 29 29 28 26 24 22 22 22 23 26 33 42 50 56 64 71 75 78 87 94 96
163 131 112 109 109 107 104 101 98 100 103 101 96 89 80 70 61 53 46 42 39 37 37 37 37 35 33 31 30 30 31 33 37 44 53 61 69 77 79 80 88 95 98 98
171 156 135 121 116 113 107 101 99 104 108 105 100 92 83 71 61 53 48 45 43 41 41 42 41 40 38 38 38 38 39 42 47 55 63 70 75 79 81 86 92 97 99 98
175 169 159 141 126 117 112 105 104 110 117 116 110 100 88 75 63 55 52 49 46 46 46 46 46 45 44 44 44 44 46 50 54 60 66 71 74 77 81 86 92 96 97 96
184 179 173 159 142 127 117 115 117 124 129 130 122 110 96 81 67 59 55 52 50 49 49 49 49 48 48 48 48 49 51 54 57 61 65 68 71 74 78 82 88 92 92 91
194 198 202 199 194 184 164 146 140 142 145 144 135 121 106 89 75 66 60 55 53 52 51 51 51 51 51 51 51 52 54 56 58 60 62 63 65 67 70 75 81 87 91 91
199 202 207 211 214 213 201 181 165 159 160 157 147 134 121 104 88 75 65 58 56 54 52 52 53 53 53 54 54 55 56 57 58 59 60 61 61 61 62 66 73 83 91 96
204 207 208 212 215 215 208 193 178 172 172 167 156 145 132 116 101 87 73 64 61 58 54 54 54 55 56 57 57 58 58 58 59 59 60 60 60 59 60 62 66 74 85 95
Height
5753 5756 5757 5758 5757 5758 5760 5761 5765 5767 5768 5768 5768 5769 5768 5768 5767 5766 5764 5764 5764 5763 5762 5760 5758 5756 5754 5751 5748 5744 5740 5735 5730 5725 5720 5715 5710 5704 5699 5693 5687 5682 5676 5670
5745 5749 5752 5752 5750 5749 5750 5753 5757 5760 5762 5762 5761 5760 5759 5758 5757 5755 5753 5754 5754 5753 5752 5750 5748 5746 5743 5740 5736 5732 5727 5722 5717 5712 5707 5701 5696 5690 5684 5679 5674 5668 5662 5656
5737 5740 5742 5742 5741 5742 5743 5745 5750 5752 5754 5753 5752 5751 5750 5748 5746 5744 5743 5744 5744 5743 5741 5739 5736 5734 5730 5727 5722 5718 5713 5708 5703 5698 5692 5687 5682 5677 5672 5666 5660 5655 5649 5643
5727 5731 5732 5730 5729 5732 5735 5738 5740 5742 5744 5744 5743 5741 5739 5738 5736 5735 5734 5733 5732 5730 5728 5726 5723 5720 5716 5712 5708 5703 5698 5694 5689 5684 5679 5674 5669 5664 5658 5653 5647 5642 5636 5630
5718 5720 5722 5722 5722 5724 5726 5727 5730 5732 5734 5734 5733 5732 5730 5728 5727 5725 5723 5721 5720 5718 5716 5714 5711 5707 5703 5699 5694 5690 5686 5682 5677 5672 5666 5662 5657 5652 5646 5641 5635 5629 5624 5618
5708 5710 5712 5715 5716 5716 5718 5718 5721 5722 5722 5722 5722 5722 5721 5718 5717 5715 5713 5711 5709 5707 5705 5703 5699 5695 5691 5687 5682 5678 5674 5670 5665 5661 5655 5650 5645 5640 5634 5629 5623 5617 5612 5607
5700 5701 5703 5707 5708 5708 5711 5712 5712 5712 5711 5710 5710 5710 5710 5708 5706 5704 5703 5701 5700 5698 5695 5692 5688 5684 5679 5675 5671 5667 5663 5659 5654 5650 5645 5639 5634 5628 5623 5617 5612 5606 5601 5596
5693 5695 5699 5699 5699 5700 5701 5701 5701 5701 5700 5701 5701 5700 5699 5698 5696 5694 5693 5691 5690 5688 5685 5681 5677 5673 5669 5665 5661 5657 5652 5648 5644 5639 5634 5628 5623 5617 5612 5606 5600 5595 5589 5584
5689 5691 5691 5691 5692 5692 5692 5692 5692 5691 5691 5691 5691 5690 5690 5688 5687 5685 5683 5682 5680 5678 5675 5671 5668 5664 5660 5656 5652 5647 5642 5637 5632 5627 5622 5617 5612 5606 5601 5595 5589 5584 5580 5576
5682 5682 5683 5683 5684 5684 5684 5684 5683 5683 5682 5682 5681 5680 5680 5679 5677 5676 5674 5673 5671 5668 5665 5662 5659 5655 5651 5647 5643 5638 5633 5627 5622 5617 5612 5607 5601 5596 5591 5586 5581 5577 5573 5570
5676 5676 5676 5676 5676 5676 5676 5675 5675 5674 5674 5673 5672 5671 5670 5669 5668 5666 5665 5663 5662 5659 5657 5654 5651 5647 5643 5639 5634 5629 5624 5619 5613 5608 5603 5598 5592 5587 5582 5578 5575 5572 5568 5564
5671 5670 5669 5669 5668 5667 5667 5667 5666 5666 5665 5664 5663 5662 5661 5660 5658 5657 5657 5655 5654 5652 5650 5647 5643 5640 5635 5631 5626 5621 5615 5610 5604 5599 5594 5589 5584 5580 5576 5572 5569 5565 5561 5557
5665 5663 5662 5660 5659 5659 5658 5658 5657 5657 5657 5657 5656 5655 5654 5653 5652 5652 5651 5650 5649 5647 5644 5641 5637 5632 5628 5623 5617 5611 5606 5601 5595 5591 5587 5582 5578 5574 5570 5566 5562 5558 5555 5552
5659 5657 5655 5653 5652 5651 5651 5651 5650 5651 5651 5651 5650 5650 5650 5650 5650 5649 5648 5647 5645 5643 5640 5636 5631 5626 5621 5615 5609 5603 5598 5593 5589 5585 5581 5577 5572 5568 5564 5561 5557 5554 5551 5549
5655 5653 5651 5648 5647 5646 5646 5646 5646 5647 5648 5648 5648 5648 5649 5649 5648 5648 5646 5645 5643 5640 5636 5631 5626 5621 5614 5608 5603 5598 5593 5588 5584 5579 5575 5571 5567 5564 5560 5558 5555 5552 5549 5547
5652 5650 5648 5647 5646 5645 5645 5645 5645 5646 5647 5647 5647 5648 5648 5648 5648 5647 5646 5644 5641 5638 5633 5628 5622 5616 5609 5604 5598 5593 5588 5583 5579 5574 5571 5567 5564 5561 5559 5556 5554 5551 5549 5547
5652 5651 5649 5648 5647 5646 5646 5646 5646 5647 5647 5648 5648 5648 5649 5649 5648 5648 5646 5643 5640 5636 5631 5625 5619 5613 5607 5601 5595 5590 5584 5579 5575 5571 5567 5565 5562 5560 5558 5556 5554 5552 5550 5549
5653 5652 5651 5650 5649 5648 5648 5649 5649 5649 5650 5650 5650 5650 5650 5650 5650 5648 5646 5643 5639 5635 5629 5623 5617 5611 5604 5598 5593 5587 5582 5577 5572 5569 5566 5564 5562 5560 5558 5557 5555 5554 5553 5552
5654 5653 5653 5652 5651 5651 5651 5651 5651 5652 5652 5652 5652 5652 5652 5652 5651 5649 5647 5644 5640 5635 5630 5624 5618 5611 5605 5599 5593 5587 5581 5576 5572 5569 5566 5564 5563 5561 5560 5559 5558 5557 5556 5556
5655 5655 5654 5654 5653 5653 5653 5654 5654 5654 5654 5654 5655 5655 5655 5654 5653 5651 5649 5646 5642 5638 5632 5627 5620 5614 5607 5601 5595 5588 5583 5578 5574 5570 5568 5566 5565 5564 5563 5562 5561 5561 5561 5561
5656 5656 5656 5656 5656 5656 5656 5656 5656 5656 5657 5657 5657 5658 5658 5657 5656 5655 5652 5649 5645 5641 5636 5630 5624 5617 5611 5605 5598 5592 5586 5581 5577 5573 5571 5569 5568 5567 5567 5566 5566 5565 5566 5566
5655 5657 5657 5658 5658 5658 5658 5658 5658 5658 5659 5659 5660 5660 5661 5660 5659 5658 5655 5653 5649 5645 5640 5635 5628 5622 5616 5610 5603 5597 5591 5586 5581 5578 5576 5574 5573 5572 5572 5571 5571 5571 5571 5572
5655 5657 5658 5659 5659 5659 5659 5660 5660 5660 5661 5662 5662 5663 5663 5663 5663 5661 5659 5656 5653 5649 5645 5640 5634 5629 5623 5616 5610 5604 5598 5593 5588 5585 5582 5580 5579 5578 5578 5577 5577 5577 5577 5577
5654 5656 5657 5658 5659 5660 5660 5661 5661 5662 5663 5663 5664 5665 5666 5666 5665 5664 5662 5660 5657 5654 5650 5646 5641 5636 5631 5625 5619 5613 5607 5602 5597 5593 5590 5588 5586 5585 5584 5583 5583 5583 5582 5582
5652 5654 5656 5658 5659 5660 5660 5661 5662 5663 5664 5665 5666 5667 5668 5668 5668 5667 5666 5664 5661 5659 5656 5652 5648 5643 5639 5634 5628 5623 5617 5612 5607 5603 5599 5596 5594 5592 5590 5589 5588 5587 5587 5587
5650 5653 5655 5656 5657 5659 5660 5661 5662 5663 5665 5666 5667 5669 5670 5670 5670 5670 5669 5667 5665 5663 5661 5658 5654 5650 5646 5642 5638 5633 5628 5623 5618 5614 5609 5605 5602 5599 5596 5593 5591 5590 5590 5590
5648 5650 5652 5654 5656 5657 5658 5660 5662 5663 5665 5666 5668 5670 5671 5672 5672 5672 5672 5670 5669 5668 5667 5664 5660 5657 5654 5650 5646 5642 5638 5633 5629 5625 5620 5616 5612 5608 5604 5600 5597 5595 5594 5594